User: anonymous   Login
Location: Ottawa
(45.4170°N, 75.7000°W)
Time: 12:34:24
(UTC-04:00)
Language:

Aureole 3 Rocket - Orbit

View from above orbital plane
View from above orbital plane
View from above satellite
View from above satellite

Ground track
Ground track

The orbit data is extracted from the following two-line orbital elements,

1 12849U 81094B   15245.93789359 +.00000617 +00000-0 +55269-4 0  9991
2 12849 082.4938 307.7931 0906601 010.7079 351.1999 13.49399343653814
Epoch (UTC): 02 September 2015 22:30:34
Eccentricity: 0.0906601
inclination: 82.4938°
perigee height: 399 km
apogee height: 1750 km
right ascension of ascending node: 307.7931°
argument of perigee: 10.7079°
revolutions per day: 13.49399343
mean anomaly at epoch: 351.1999°
orbit number at epoch: 65381

The dashed part of the orbit path shows where the satellite is in the earth's shadow,  

DLR